Time,TemperatureF,DewpointF,PressureIn,WindDirection,WindDirectionDegrees,WindSpeedMPH,WindSpeedGustMPH,Humidity,HourlyPrecipIn,Conditions,Clouds,dailyrainin,SoftwareType,DateUTC
2013-02-03 00:00:00,41.8,40.5,29.40,SSW,195,1.0,6.0,95,0.03,RA,,0.00,WeatherDisplay:10.37,2013-02-02 23:00:00,
2013-02-03 00:30:00,41.6,40.5,29.41,SSE,164,0.0,4.0,96,0.01,CLR,,0.00,WeatherDisplay:10.37,2013-02-02 23:30:00,
2013-02-03 01:00:00,41.5,40.2,29.41,SSE,164,0.0,1.0,95,0.00,CLR,,0.00,WeatherDisplay:10.37,2013-02-03 00:00:00,
2013-02-03 01:30:00,41.5,40.2,29.42,SE,133,2.0,7.0,95,0.00,CLR,,0.00,WeatherDisplay:10.37,2013-02-03 00:30:00,
2013-02-03 02:00:00,41.3,40.0,29.43,SE,124,0.0,4.0,95,0.00,CLR,,0.00,WeatherDisplay:10.37,2013-02-03 01:00:00,
2013-02-03 02:30:00,41.5,40.4,29.43,SSE,147,1.0,7.0,96,0.00,CLR,,0.00,WeatherDisplay:10.37,2013-02-03 01:30:00,
2013-02-03 03:00:00,41.8,40.5,29.42,SSE,158,0.0,4.0,95,0.00,CLR,,0.00,WeatherDisplay:10.37,2013-02-03 02:00:00,
2013-02-03 03:30:00,40.8,39.5,29.42,SSE,158,0.0,3.0,95,0.00,CLR,,0.00,WeatherDisplay:10.37,2013-02-03 02:30:00,
2013-02-03 04:00:00,40.3,39.0,29.41,SSE,158,0.0,3.0,95,0.00,CLR,,0.00,WeatherDisplay:10.37,2013-02-03 03:00:00,
2013-02-03 04:30:00,41.7,40.1,29.43,SSE,150,2.0,12.0,94,0.03,RA,,0.03,WeatherDisplay:10.37,2013-02-03 03:30:00,
2013-02-03 05:00:00,41.9,40.3,29.43,East,100,2.0,12.0,94,0.04,RA,,0.04,WeatherDisplay:10.37,2013-02-03 04:00:00,
2013-02-03 05:30:00,42.6,40.7,29.44,SE,137,5.0,12.0,93,0.02,RA,,0.05,WeatherDisplay:10.37,2013-02-03 04:30:00,
2013-02-03 06:30:00,41.7,39.3,29.47,SW,222,0.0,7.0,91,0.08,RA,,0.13,WeatherDisplay:10.37,2013-02-03 05:30:00,
2013-02-03 07:00:00,41.2,39.1,29.46,ESE,108,5.0,10.0,92,0.07,RA,,0.13,WeatherDisplay:10.37,2013-02-03 06:00:00,
2013-02-03 07:30:00,42.1,39.9,29.48,WNW,299,1.0,12.0,92,0.01,,,0.13,WeatherDisplay:10.37,2013-02-03 06:30:00,
2013-02-03 08:00:00,41.6,39.4,29.50,SE,138,2.0,13.0,92,0.05,RA,,0.18,WeatherDisplay:10.37,2013-02-03 07:00:00,
2013-02-03 08:30:00,42.1,40.0,29.51,ESE,116,2.0,12.0,92,0.06,RA,,0.19,WeatherDisplay:10.37,2013-02-03 07:30:00,
2013-02-03 09:00:00,42.5,40.1,29.52,ESE,109,3.0,12.0,91,0.01,CLR,,0.19,WeatherDisplay:10.37,2013-02-03 08:00:00,
2013-02-03 09:30:00,42.5,40.1,29.54,ESE,103,2.0,12.0,91,0.03,RA,,0.22,WeatherDisplay:10.37,2013-02-03 08:30:00,
2013-02-03 10:00:00,42.7,40.6,29.56,ESE,106,3.0,10.0,92,0.06,RA,,0.25,WeatherDisplay:10.37,2013-02-03 09:00:00,
2013-02-03 10:30:00,46.3,43.8,29.57,SE,137,1.0,12.0,91,0.05,RA,,0.27,WeatherDisplay:10.37,2013-02-03 09:30:00,
2013-02-03 12:00:00,44.1,40.5,29.61,ENE,65,1.0,10.0,87,0.01,RA,,0.28,WeatherDisplay:10.37,2013-02-03 11:00:00,
2013-02-03 12:30:00,42.8,40.1,29.64,SSE,166,2.0,5.0,90,0.10,RA,,0.37,WeatherDisplay:10.37,2013-02-03 11:30:00,
2013-02-03 13:00:00,40.3,37.6,29.65,East,80,3.0,9.0,90,0.20,RA,,0.47,WeatherDisplay:10.37,2013-02-03 12:00:00,
2013-02-03 13:30:00,39.5,37.1,29.66,NE,44,1.0,12.0,91,0.20,RA,,0.57,WeatherDisplay:10.37,2013-02-03 12:30:00,
2013-02-03 14:00:00,39.0,36.6,29.68,SSE,165,1.0,16.0,91,0.14,RA,,0.61,WeatherDisplay:10.37,2013-02-03 13:00:00,
2013-02-03 14:30:00,38.1,36.0,29.69,SE,145,1.0,12.0,92,0.09,RA,,0.66,WeatherDisplay:10.37,2013-02-03 13:30:00,
2013-02-03 15:00:00,38.2,36.1,29.70,SSE,167,3.0,10.0,92,0.06,RA,,0.68,WeatherDisplay:10.37,2013-02-03 14:00:00,
2013-02-03 15:30:00,37.8,36.0,29.72,SSE,164,7.0,10.0,93,0.03,RA,,0.69,WeatherDisplay:10.37,2013-02-03 14:30:00,
2013-02-03 16:00:00,37.9,36.1,29.73,East,85,5.0,10.0,93,0.02,CLR,,0.69,WeatherDisplay:10.37,2013-02-03 15:00:00,
2013-02-03 16:30:00,39.1,36.7,29.75,NE,47,2.0,12.0,91,0.00,CLR,,0.69,WeatherDisplay:10.37,2013-02-03 15:30:00,
2013-02-03 17:00:00,39.4,35.6,29.75,ENE,61,6.0,15.0,86,0.01,RA,,0.70,WeatherDisplay:10.37,2013-02-03 16:00:00,
2013-02-03 17:30:00,39.8,34.7,29.77,NE,52,12.0,21.0,82,0.01,CLR,,0.70,WeatherDisplay:10.37,2013-02-03 16:30:00,
2013-02-03 18:00:00,39.5,34.5,29.79,ENE,68,8.0,20.0,82,0.00,CLR,,0.70,WeatherDisplay:10.37,2013-02-03 17:00:00,
2013-02-03 18:30:00,39.5,33.8,29.81,East,85,9.0,18.0,80,0.00,CLR,,0.70,WeatherDisplay:10.37,2013-02-03 17:30:00,
2013-02-03 19:00:00,39.3,34.0,29.81,ENE,63,8.0,23.0,81,0.00,CLR,,0.70,WeatherDisplay:10.37,2013-02-03 18:00:00,
2013-02-03 19:30:00,38.8,33.8,29.82,ENE,58,9.0,23.0,82,0.00,CLR,,0.70,WeatherDisplay:10.37,2013-02-03 18:30:00,
2013-02-03 20:00:00,39.1,32.8,29.84,NE,44,6.0,22.0,78,0.00,CLR,,0.70,WeatherDisplay:10.37,2013-02-03 19:00:00,
2013-02-03 20:30:00,39.4,32.5,29.87,NE,50,6.0,21.0,76,0.00,CLR,,0.70,WeatherDisplay:10.37,2013-02-03 19:30:00,
2013-02-03 21:00:00,38.8,31.6,29.87,NE,56,5.0,16.0,75,0.00,CLR,,0.70,WeatherDisplay:10.37,2013-02-03 20:00:00,
2013-02-03 21:30:00,38.6,31.3,29.88,NE,55,12.0,24.0,75,0.00,CLR,,0.70,WeatherDisplay:10.37,2013-02-03 20:30:00,
2013-02-03 22:00:00,38.8,31.6,29.90,ENE,64,8.0,20.0,75,0.00,CLR,,0.70,WeatherDisplay:10.37,2013-02-03 21:00:00,
2013-02-03 22:30:00,39.4,30.7,29.91,ENE,61,7.0,20.0,71,0.00,CLR,,0.70,WeatherDisplay:10.37,2013-02-03 21:30:00,
2013-02-03 23:00:00,39.4,29.7,29.92,NE,56,10.0,21.0,68,0.00,CLR,,0.70,WeatherDisplay:10.37,2013-02-03 22:00:00,
2013-02-03 23:30:00,39.1,29.8,29.92,ENE,60,8.0,23.0,69,0.00,CLR,,0.70,WeatherDisplay:10.37,2013-02-03 22:30:00,